1st Responders/1st Detectors/Storm Spotters Weather Summary for Harrison County, KY

Forecast Maps


Reg. NEXRAD Animation


National Fire Danger: Day 1 & 2 Map

Current NWS Watch/Warnings

SPC Convective Day 1 Outlook


Day 2 Outlook

(Click images to enlarge|Page will refresh every 5 minutes)
UK Ag. Weather Center Desktop Severe Weather Service[HERE]
Harrison County, KY Hazardous Weather Outlook Webcast
(9 AM to 9 PM Mon-Fri)
[Fast]
[Dial-up]


UKAWC 1st Detectors/1st Responders Precision Weather Forecast For HARRISON County, Kentucky
(based on the NWS County Digital Forecast)

ISSUED AT 09:00 UTC ON THURSDAY MAY 23 2019
DAY THURSDAY
EDT 3HR 6A 7A 8A 9A 10A 11A NOON 1P 2P 3P 4P 5P 6P 7P
MAX/MIN -- -- 65° -- -- -- -- -- -- -- -- -- -- 85°
TEMP 67° 67° 67° 70° 74° 76° 77° 79° 81° 83° 83° 83° 83° 81°
SKY COVER 65% 74% 80% 63% 68% 74% 70% 64% 57% 61% 65% 67% 73% 74%
Clouds
DEW PT 61° 61° 61° 63° 65° 65° 67° 67° 68° 68° 68° 68° 68° 68°
RH 81% 81% 81% 78% 73% 70% 69% 66% 66% 62% 63% 62% 63% 64%
POP 12HR -- -- 15% -- -- -- -- -- -- -- -- -- -- --
RAIN/SNOW (liq.equ) -- -- 0.00in -- -- -- -- -- 0.12in -- -- -- -- --
SNOWFALL -- -- 0in -- -- -- -- -- 0in -- -- -- -- --
WIND SPEED(MPH) 7 7 7 8 9 13 13 10 13 13 13 10 9 8
WIND Gust(MPH) 10 10 15 15 15 23 23 23 24 24 24 23 18 16
WIND DIR S S S S S SW S S SW S S SW SW S
DEW Lgt Dew Lgt Dew Lgt Dew Lgt Dew Lgt Dew -- -- -- -- -- -- -- -- --
HeatIndex 67 67 67 70 74 76 77 82 84 86 86 86 86 85
Rain Showers -- -- Slight Chance Slight Chance Chance Chance Slight Chance -- Chance Likely Chance -- Slight Chance --
Thunder Storm -- -- -- -- -- Slight Chance Slight Chance -- Chance Scattered Scattered -- Isolated --
WIND CHILL -- -- -- -- -- -- -- -- -- -- -- -- -- --
SPRAY COND
DRY COND
LIVESTOCK HEATSTRESS 66.14 66.14 66.14 68.64 71.74 73.16 73.90 75.22 76.85 77.94 78.08 77.94 78.08 76.60



DAY FRIDAY SATURDAY SUNDAY MONDAY TUESDAY WEDNESDAY
EDT 6HR 8P 9P 10P 11P MIDN 1A 2A 3A 4A 5A 6A 7A 8A 9A 10A 11A NOON 1P 2P 3P 4P 5P 8P 11P 2A 5A 8A 11A 2P 5P 8P 2A 8A 2P 8P 2A 8A 2P 8P 2A 8A 2P 8P 2A 8A 2P 8P
MAX/MIN -- -- -- -- -- -- -- -- -- -- -- -- 63° -- -- -- -- -- -- -- -- 85° -- -- -- -- 63° -- -- 88° -- -- 65° 85° -- -- 63° 83° -- -- 63° 85° -- -- 65° 83° --
TEMP 79° 76° 74° 72° 70° 68° 68° 67° 65° 67° 65° 65° 65° 67° 72° 74° 79° 81° 83° 85° 85° 85° 83° 72° 65° 65° 65° 81° 86° 86° 79° 68° 68° 85° 77° 65° 67° 81° 76° 67° 67° 83° 81° 67° 67° 81° 79°
SKY COVER 71% 74% 59% 58% 57% 58% 60% 59% 58% 57% 56% 55% 54% 56% 57% 59% 58% 58% 58% 54% 51% 51% 17% 12% 51% 57% 51% 51% 50% 49% 23% 34% 49% 71% 78% 72% 68% 60% 70% 62% 54% 49% 34% 29% 46% 61% 54%
Clouds
DEW PT 68° 68° 68° 67° 67° 67° 67° 67° 65° 65° 65° 65° 65° 67° 67° 67° 67° 68° 68° 68° 67° 67° 68° 67° 65° 65° 65° 65° 65° 65° 65° 63° 65° 65° 65° 63° 65° 65° 65° 63° 61° 65° 65° 61° 63° 63° 63°
RH 71% 76% 84% 84% 92% 96% 92% 99% 100% 97% 100% 99% 99% 96% 83% 78% 69% 65% 60% 57% 55% 55% 62% 84% 96% 100% 100% 58% 49% 50% 59% 83% 87% 52% 66% 93% 93% 58% 69% 86% 83% 54% 58% 81% 83% 54% 60%
POP 12HR 45% -- -- -- -- -- -- -- -- -- -- -- 31% -- -- -- -- -- -- -- -- -- 32% -- -- -- 20% -- -- -- 23% -- 8% -- 55% -- 32% -- 28% -- 17% -- 21% -- 7% -- 25%
RAIN/SNOW (liq.equ) 0.10in -- -- -- -- -- 0.04in -- -- -- -- -- 0.00in -- -- -- -- -- 0.03in -- -- -- 0.00in -- 0.00in -- 0.00in -- 0.00in -- 0.00in -- -- -- -- -- -- -- -- -- -- -- -- -- -- -- --
SNOWFALL 0in -- -- -- -- -- 0in -- -- -- -- -- 0in -- -- -- -- -- 0in -- -- -- 0in -- 0in -- 0in -- 0in -- 0in -- -- -- -- -- -- -- -- -- -- -- -- -- -- -- --
WIND SPEED(MPH) 6 5 5 1 5 5 0 5 2 0 2 2 2 1 1 1 1 2 2 5 5 5 2 2 5 5 5 7 10 9 7 6 6 8 7 2 6 7 6 5 7 9 7 7 7 14 10
WIND DIR SW SE E SW E E SW E E E E E NE E E E SE SW SW SW SW SW S S S S S SW SW SW SW SW SW SW W SW SW SW W S S SW SW S SW SW SW
HeatIndex 79 76 74 72 70 68 68 67 65 67 65 65 65 67 72 74 79 85 87 90 89 89 86 72 65 65 65 84 89 89 81 68 68 87 77 65 67 84 76 67 67 84 82 67 67 82 79
Rain Showers -- Slight Chance Slight Chance Slight Chance Chance Chance Chance Chance Chance Chance Chance Chance Chance Chance Chance Chance Chance Chance Slight Chance Slight Chance Slight Chance Slight Chance -- -- Slight Chance Slight Chance Slight Chance Slight Chance Slight Chance Slight Chance -- -- Slight Chance Likely Chance Chance Chance Chance Slight Chance -- Slight Chance Slight Chance -- -- Chance Slight Chance Slight Chance
Thunder Storm -- Isolated Isolated Isolated -- -- -- -- -- -- -- -- Chance Chance Chance Chance Chance Chance Slight Chance Slight Chance Slight Chance Slight Chance -- -- Slight Chance Slight Chance -- -- Slight Chance Slight Chance -- -- Slight Chance Chance Slight Chance Slight Chance Chance Chance Slight Chance -- Slight Chance Slight Chance -- -- Slight Chance Slight Chance --
WIND CHILL -- -- -- -- -- -- -- -- -- -- -- -- -- -- -- -- -- -- -- -- -- -- -- -- -- -- -- -- -- -- -- -- -- -- -- -- -- -- -- -- -- -- -- -- -- -- --
SPRAY COND
DRY COND
LIVESTOCK HEATSTRESS 75.78 73.73 72.66 70.84 69.51 67.80 67.60 66.95 65.00 66.86 65.00 64.97 64.97 66.82 70.77 72.16 75.56 76.73 77.68 78.80 78.52 78.52 77.94 70.84 64.86 65.00 65.00 75.87 78.37 78.52 74.44 67.14 67.34 78.08 73.60 64.76 66.68 75.87 73.07 66.37 66.23 76.88 75.87 66.14 66.23 75.38 74.56

Click on individual weather variable above in left-hand column (ie., TEMP, RH, QPF 12HR) to view state forecast maps






NWS 48 Hr. Forecast Maps,

Regional Hourly Observations For HARRISON County, Kentucky
Issued at 500 AM EDT THU MAY 23 2019
NORTHEAST KENTUCKY
  
CITY           SKY/WX    TMP DP  RH WIND       PRES   REMARKS
LEXINGTON      FAIR      70  58  65 S8        30.11R                  
COVINGTON      CLOUDY    69  65  86 S7        30.06S                  
FRANKFORT      FAIR      71  60  68 S5        30.08R                  


Current NOWCAST not available:
Nowcasts are not issued routinely during fair weather. Only when
precipitation or other significant weather is occuring in this county will these
forecasts be issued. Currently, there is no short term forecast in effect.


Fire Weather Forecast For HARRISON County, KY
Provided by the National Weather Service:

Issued at: Thu May 23 05:05:01 EDT 2019


                      Today        Tonight      Fri          

CLOUD COVER           PCldy        PCldy        PCldy        
PRECIP TYPE           Tstms        Tstms        Tstms        
CHANCE PRECIP (%)     40           20           30           
TEMP (24H TREND)      87 (-1)      64 (-3)      88           
RH % (24H TREND)      57 (+13)     99 (+13)     48           
20FTWND-VAL/AM(MPH)   S  8 G20                  Lgt/Var      
20FTWND-RDG/PM(MPH)   SW 10 G21    Lgt/Var      Lgt/Var      
PRECIP AMOUNT         0.12         0.04         0.03         
MIXING HGT(FT-AGL/MSL)5255                      6300         
TRANSPORT WND (MPH)   SW 26                     W 12         
VENT RATE (KT-FT)     116472                    76507        
DISPERSION            Excellent                 Good         
DSI                   SLGT UNSTBL  SLGT UNSTBL  SLGT UNSTBL  
LAL                   3            3            3            
HAINES INDEX          3            3            3            
ADI EARLY             42 GEN GOOD  14 GEN POOR  24 FAIR      
ADI LATE              78 GOOD      3 VERY POOR  0 VERY POOR  
MAX LVORI EARLY       4            6            7            
MAX LVORI LATE        1            8            3            

REMARKS...ADI IS ATMOSPHERIC DISPERSION INDEX BY LAVDAS.        
LVORI IS LOW VISIBILITY OCCURRENCE RISK INDEX.

.SATURDAY...Partly cloudy. A 20 percent chance of showers and
thunderstorms. Lows in the mid 60s. Highs in the upper 80s. South
winds around 5 mph. 
.SUNDAY...Partly cloudy. A 50 percent chance of showers and
thunderstorms. Lows in the mid 60s. Highs in the upper 80s.
Southwest winds around 5 mph. 
.MONDAY...Mostly cloudy. Lows in the mid 60s. Highs in the upper
80s. Southwest winds up to 10 mph. 
.TUESDAY...Partly cloudy. Lows in the upper 60s. Highs in the
upper 80s. Southwest winds 5 to 10 mph. 
.WEDNESDAY...Partly cloudy. Lows in the mid 60s. Highs in the mid
80s. Southwest winds 5 to 15 mph. 

SPC's Fire Weather Web Tool (Excellent!), SPC's Fire Weather Outlooks, NWS Fire Weather WEB, Fire Danger Class Map,
Keetch-Byram Drought Index, ROMAN Web, Haines Index ,
WFAS's 10-hr Dead Fuel Moist., WFAS's 100-hr Dead Fuel Moist., Probablity of Ignition, Visual blackness Map, Palmer Drought Index, HPC's Rainfall Forecast Maps


Hazardous Weather Outlook For HARRISON County, Kentucky
345 AM EDT Thu May 23 2019 /245 AM CDT Thu May 23 2019/

 DAY ONE  Today and Tonight.

An approaching cold front will bring chances of scattered storms 
this afternoon mainly north of I64 with locally gusty winds being the
main threat. 


 DAYS TWO THROUGH SEVEN  Friday through Wednesday.

Isolated to widely scattered storms are forecast Friday afternoon 
through Tuesday. The best coverage appears to be on Friday morning and
then again on Sunday as a couple of frontal boundaries approach the 
region and provide focus for storm development. The main threats with
these storms will be brief heavy rainfall and gusty winds.

 SPOTTER INFORMATION STATEMENT  

Spotter activation is not anticipated.

Latest HARRISON County, Kentucky Watches, Warnings and Advisories.
Additional Drought Info.: UKAWC Drought Page, Kentucky Drought Watch


7-Day Forecast For HARRISON County, KY

TODAY
Mostly cloudy in the morning then becoming partly cloudy. A 50 percent chance of showers and thunderstorms. Highs in the mid 80s. South winds 5 to 15 mph with gusts to around 30 mph.

TONIGHT
Partly cloudy with a 40 percent chance of showers and thunderstorms. Lows in the mid 60s. Southeast winds up to 10 mph.

FRIDAY
Partly cloudy with a 30 percent chance of showers and thunderstorms. Highs in the mid 80s. South winds up to 5 mph.

FRIDAY NIGHT
Partly cloudy with a 20 percent chance of showers and thunderstorms. Lows in the mid 60s. South winds around 5 mph.

SATURDAY
Partly cloudy with a 20 percent chance of showers and thunderstorms. Highs in the upper 80s. Southwest winds 5 to 15 mph.

SATURDAY NIGHT
Partly cloudy with a 20 percent chance of showers and thunderstorms. Lows in the mid 60s.

SUNDAY
Partly cloudy with a 50 percent chance of showers and thunderstorms. Highs in the mid 80s.

SUNDAY NIGHT
Partly cloudy with a 20 percent chance of showers and thunderstorms. Lows in the mid 60s.

MEMORIAL DAY
Partly cloudy with a 20 percent chance of showers and thunderstorms. Highs in the mid 80s.

MONDAY NIGHT
Partly cloudy with a 20 percent chance of showers and thunderstorms. Lows in the mid 60s.

TUESDAY
Partly cloudy. Highs in the upper 80s.

TUESDAY NIGHT
Partly cloudy. Lows in the mid 60s.

WEDNESDAY
Partly cloudy with a 20 percent chance of showers and thunderstorms. Highs in the mid 80s.

Ag Weather Center, Department of Biosystems & Agricultural Engineering, University of Kentucky